Bierset, Belgium

10:33 PM CEST on August 28, 2016 (GMT +0200)
Liege

Weather History for EBLG - May, 2013

Change the Weather History Date:

Tuesday, May 21, 2013

  Actual Average Record
Temperature  
Mean Temperature 52 °F -  
Max Temperature 58 °F 66 °F 77 °F (2002)
Min Temperature 46 °F 50 °F 39 °F (2015)
Degree Days  
Heating Degree Days 13    
Growing Degree Days 2 (Base 50)    
Moisture  
Dew Point 47 °F    
Average Humidity 90    
Maximum Humidity 100    
Minimum Humidity 70    
Precipitation  
Precipitation 0.08 in - - ()
Sea Level Pressure  
Sea Level Pressure 29.84 in    
Wind  
Wind Speed 5 mph ()    
Max Wind Speed 10 mph    
Max Gust Speed -    
Visibility 5.8 miles    
Events Rain    
Averages and records for this station are not official NWS values.
T = Trace of Precipitation, MM = Missing Value Source: Averaged Metar Reports

Daily Weather History Graph

Daily Weather History Graph

Search for Another Location

Airport or City:

Trip Planner

Search our weather history database for the weather conditions in past years. The results will help you decide how hot, cold, wet, or windy it might be!

Date:

Astronomy

May. 21, 2013 Rise Set
Actual Time 5:41 AM CEST 9:28 PM CEST
Civil Twilight 5:00 AM CEST 10:10 PM CEST
Nautical Twilight 4:03 AM CEST 11:08 PM CEST
Astronomical Twilight 2:33 AM CEST 12:40 AM CEST
Moon 5:00 PM CEST (5/21) 3:28 AM CEST (5/21)
Length of Visible Light 17h 10m
Length of Day
15h 46m
Waxing Gibbous, 81% of the Moon is Illuminated
May 21
Waxing Gibbous
May 25
Full
May 31
Last Quarter
Jun 8
New
Jun 16
First Quarter

Hourly Weather History & Observations

Time (CEST) Temp. Windchill Dew Point Humidity Pressure Visibility Wind Dir Wind Speed Gust Speed Precip Events Conditions
12:20 AM 50.0 °F - 46.4 °F 87% 29.83 in 6.2 mi SE 4.6 mph - N/A   Mostly Cloudy
12:50 AM 50.0 °F - 46.4 °F 87% 29.80 in 6.2 mi SE 4.6 mph - N/A   Mostly Cloudy
1:20 AM 50.0 °F - 46.4 °F 87% 29.83 in 6.2 mi SSE 3.5 mph - N/A   Mostly Cloudy
1:50 AM 50.0 °F - 46.4 °F 87% 29.80 in 6.2 mi SSE 3.5 mph - N/A   Scattered Clouds
2:00 AM 50 °F - 46 °F 80% 29.83 in 12 mi SSE 4.5 mph - -   Partly Cloudy
2:20 AM 48.2 °F - 46.4 °F 93% 29.80 in 6.2 mi SE 5.8 mph - N/A   Scattered Clouds
2:50 AM 48.2 °F - 46.4 °F 93% 29.80 in 6.2 mi SE 3.5 mph - N/A   Partly Cloudy
3:20 AM 48.2 °F - 46.4 °F 93% 29.80 in 6.2 mi SE 4.6 mph - N/A   Partly Cloudy
3:50 AM 46.4 °F 45.2 °F 44.6 °F 93% 29.80 in 6.2 mi SE 3.5 mph - N/A   Partly Cloudy
4:20 AM 46.4 °F 44.3 °F 44.6 °F 93% 29.80 in 6.2 mi SE 4.6 mph - N/A   Partly Cloudy
4:50 AM 46.4 °F 45.2 °F 44.6 °F 93% 29.80 in 6.2 mi SSE 3.5 mph - N/A   Scattered Clouds
5:00 AM 47 °F - 45 °F 92% 29.82 in 6 mi SSE 2.2 mph - -   Partly Cloudy
5:20 AM 48.2 °F - 46.4 °F 93% 29.80 in 6.2 mi Variable 2.3 mph - N/A   Partly Cloudy
5:50 AM 46.4 °F 44.3 °F 44.6 °F 93% 29.80 in 6.2 mi SE 4.6 mph - N/A   Partly Cloudy
6:20 AM 46.4 °F 45.2 °F 44.6 °F 93% 29.80 in 5.6 mi SE 3.5 mph - N/A   Partly Cloudy
6:50 AM 48.2 °F - 46.4 °F 93% 29.80 in 6.2 mi Variable 1.2 mph - N/A   Partly Cloudy
7:20 AM 50.0 °F - 46.4 °F 87% 29.80 in 6.2 mi SSW 3.5 mph - N/A   Partly Cloudy
7:50 AM 51.8 °F - 48.2 °F 88% 29.80 in 6.2 mi SW 3.5 mph - N/A   Partly Cloudy
8:00 AM 51 °F - 48 °F 86% 29.82 in 9 mi SW 4.5 mph - -   Scattered Clouds
8:50 AM 51.8 °F - 48.2 °F 88% 29.83 in - West 3.5 mph - N/A   Clear
9:20 AM 53.6 °F - 48.2 °F 82% 29.83 in 6.2 mi Variable 2.3 mph - N/A   Partly Cloudy
9:50 AM 53.6 °F - 48.2 °F 82% 29.83 in 6.2 mi Variable 2.3 mph - N/A   Scattered Clouds
10:20 AM 55.4 °F - 48.2 °F 77% 29.83 in 6.2 mi West 4.6 mph - N/A   Scattered Clouds
10:50 AM 55.4 °F - 48.2 °F 77% 29.83 in 6.2 mi West 5.8 mph - N/A   Scattered Clouds
11:00 AM 55 °F - 48 °F 70% 29.84 in 19 mi West 4.5 mph - -   Mostly Cloudy
11:20 AM 55.4 °F - 48.2 °F 77% 29.83 in 6.2 mi WNW 3.5 mph - N/A   Scattered Clouds
11:50 AM 57.2 °F - 48.2 °F 72% 29.83 in 6.2 mi Variable 3.5 mph - N/A   Scattered Clouds
12:20 PM 57.2 °F - 50.0 °F 77% 29.83 in 6.2 mi WNW 8.1 mph - N/A   Scattered Clouds
12:50 PM 55.4 °F - 50.0 °F 82% 29.83 in 6.2 mi WNW 9.2 mph - N/A   Scattered Clouds
1:20 PM 55.4 °F - 50.0 °F 82% 29.83 in 6.2 mi WNW 9.2 mph - N/A   Scattered Clouds
1:50 PM 53.6 °F - 50.0 °F 88% 29.83 in 5.6 mi WNW 8.1 mph - N/A Rain Light Rain
2:00 PM 53 °F - 50 °F 87% 29.86 in 6 mi WNW 8.9 mph - - Rain Light Rain
2:20 PM 53.6 °F - 50.0 °F 88% 29.83 in 6.2 mi West 10.4 mph - N/A   Mostly Cloudy
2:50 PM 51.8 °F - 50.0 °F 94% 29.86 in 6.2 mi West 10.4 mph - N/A   Mostly Cloudy
3:20 PM 51.8 °F - 48.2 °F 88% 29.86 in 6.2 mi West 8.1 mph - N/A   Mostly Cloudy
3:50 PM 51.8 °F - 50.0 °F 94% 29.86 in 6.2 mi West 9.2 mph - N/A   Mostly Cloudy
4:20 PM 51.8 °F - 50.0 °F 94% 29.86 in 6.2 mi West 9.2 mph - N/A Rain Light Rain
4:50 PM 51.8 °F - 50.0 °F 94% 29.86 in 6.2 mi West 9.2 mph - N/A Rain Light Rain
5:00 PM 51 °F - 49 °F 92% 29.87 in 6 mi West 8.9 mph - - Rain Light Rain
5:20 PM 50.0 °F - 50.0 °F 100% 29.86 in 4.3 mi WNW 9.2 mph - N/A Rain Light Rain
5:50 PM 50.0 °F - 48.2 °F 94% 29.86 in 6.2 mi WNW 8.1 mph - N/A   Mostly Cloudy
6:20 PM 50.0 °F - 48.2 °F 94% 29.86 in 6.2 mi WNW 8.1 mph - N/A Rain Light Rain
6:50 PM 48.2 °F - 48.2 °F 100% 29.86 in 3.7 mi WNW 8.1 mph - N/A Rain Light Rain
7:20 PM 48.2 °F - 46.4 °F 93% 29.86 in 4.3 mi WNW 9.2 mph - N/A Rain Light Rain
7:50 PM 48.2 °F - 46.4 °F 93% 29.86 in 3.7 mi WNW 8.1 mph - N/A Rain Light Rain
8:00 PM 48 °F - 47 °F 96% 29.88 in 4 mi WNW 8.9 mph - - Rain Light Rain
8:20 PM 48.2 °F - 46.4 °F 93% 29.86 in 3.7 mi WNW 9.2 mph - N/A Rain Light Rain
8:50 PM 48.2 °F - 46.4 °F 93% 29.86 in - WNW 10.4 mph - N/A Rain Rain
9:20 PM 48.2 °F - 46.4 °F 93% 29.86 in 1.9 mi WNW 8.1 mph - N/A Rain Light Rain
9:50 PM 46.4 °F 42.4 °F 46.4 °F 100% 29.86 in 1.9 mi NW 8.1 mph - N/A Rain Light Rain
10:20 PM 46.4 °F 41.9 °F 46.4 °F 100% 29.89 in 1.9 mi NW 9.2 mph - N/A Rain Light Rain
10:50 PM 46.4 °F 41.9 °F 46.4 °F 100% 29.89 in 1.7 mi NW 9.2 mph - N/A Rain Light Rain
11:00 PM 47 °F - 46 °F 94% 29.90 in 2 mi NW 8.9 mph - - Rain Light Rain
11:20 PM 46.4 °F 42.4 °F 46.4 °F 100% 29.89 in - NW 8.1 mph - N/A   Light Drizzle
11:50 PM 46.4 °F 41.5 °F 44.6 °F 93% 29.89 in 1.5 mi NW 10.4 mph - N/A Rain Rain